Phuket, Thailand

2:18 PM +07 on December 17, 2017 (GMT +0700)
Phuket International

Weather History for VTSP - January, 2014

Change the Weather History Date:

Sunday, January 12, 2014

  Actual Average Record
Temperature  
Mean Temperature 80 °F -  
Max Temperature 90 °F 90 °F 96 °F (2002)
Min Temperature 71 °F 74 °F 71 °F (2009)
Cooling Degree Days 16    
Growing Degree Days 30 (Base 50)    
Moisture  
Dew Point 71 °F    
Average Humidity 68    
Maximum Humidity 83    
Minimum Humidity 49    
Precipitation  
Precipitation 0.02 in 0.05 in - ()
Sea Level Pressure  
Sea Level Pressure 29.91 in    
Wind  
Wind Speed 4 mph ()    
Max Wind Speed 14 mph    
Max Gust Speed -    
Visibility 4.8 miles    
Events Rain    
Averages and records for this station are not official NWS values.
T = Trace of Precipitation, MM = Missing Value Source: Averaged Metar Reports

Daily Weather History Graph

Daily Weather History Graph

Search for Another Location

Airport or City:

Trip Planner

Search our weather history database for the weather conditions in past years. The results will help you decide how hot, cold, wet, or windy it might be!

Date:

Astronomy

Jan. 12, 2014 Rise Set
Actual Time 6:44 AM +07 6:25 PM +07
Civil Twilight 6:21 AM +07 6:48 PM +07
Nautical Twilight 5:55 AM +07 7:14 PM +07
Astronomical Twilight 5:29 AM +07 7:39 PM +07
Moon 3:24 PM +07 (1/12) 3:22 AM +07 (1/12)
Length of Visible Light 12h 26m
Length of Day
11h 41m
Waxing Gibbous, 86% of the Moon is Illuminated
Jan 12
Waxing Gibbous
Jan 16
Full
Jan 24
Last Quarter
Jan 31
New
Feb 7
First Quarter

Hourly Weather History & Observations

Time (+07) Temp. Heat Index Dew Point Humidity Pressure Visibility Wind Dir Wind Speed Gust Speed Precip Events Conditions
12:00 AM 80.6 °F 84.6 °F 71.6 °F 74% 29.95 in 5.0 mi NE 3.5 mph - N/A   Mostly Cloudy
12:30 AM 80.6 °F 84.6 °F 71.6 °F 74% 29.95 in 5.0 mi NE 3.5 mph - N/A   Mostly Cloudy
1:00 AM 80 °F - 73 °F 73% 29.90 in 6 mi Calm Calm - -   Scattered Clouds
1:00 AM 78.8 °F - 71.6 °F 78% 29.95 in 5.0 mi ENE 4.6 mph - N/A   Mostly Cloudy
1:30 AM 78.8 °F - 69.8 °F 74% 29.92 in 5.0 mi ENE 3.5 mph - N/A   Mostly Cloudy
2:00 AM 78.8 °F - 69.8 °F 74% 29.92 in 5.0 mi ENE 3.5 mph - N/A   Mostly Cloudy
2:30 AM 78.8 °F - 69.8 °F 74% 29.89 in 5.0 mi Variable 2.3 mph - N/A   Mostly Cloudy
3:00 AM 78.8 °F - 68.0 °F 69% 29.89 in 5.0 mi NE 3.5 mph - N/A   Mostly Cloudy
3:30 AM 78.8 °F - 68.0 °F 69% 29.89 in 5.0 mi ENE 5.8 mph - N/A   Mostly Cloudy
4:00 AM 79 °F - 70 °F 68% 29.85 in 6 mi Calm Calm - -   Scattered Clouds
4:00 AM 78.8 °F - 68.0 °F 69% 29.89 in 5.0 mi ENE 6.9 mph - N/A   Mostly Cloudy
4:30 AM 78.8 °F - 68.0 °F 69% 29.89 in 5.0 mi ENE 5.8 mph - N/A   Mostly Cloudy
5:00 AM 77.0 °F - 68.0 °F 74% 29.89 in 5.0 mi ENE 3.5 mph - N/A   Mostly Cloudy
5:30 AM 77.0 °F - 69.8 °F 78% 29.89 in 5.0 mi ENE 3.5 mph - N/A   Mostly Cloudy
6:00 AM 77.0 °F - 69.8 °F 78% 29.89 in 5.0 mi Variable 2.3 mph - N/A   Mostly Cloudy
6:30 AM 77.0 °F - 69.8 °F 78% 29.92 in 4.3 mi ENE 4.6 mph - N/A   Mostly Cloudy
7:00 AM 78 °F - 72 °F 78% 29.89 in 4 mi Calm Calm - -   Mist
7:00 AM 77.0 °F - 69.8 °F 78% 29.92 in 4.3 mi NNE 4.6 mph - N/A   Mostly Cloudy
7:30 AM 77.0 °F - 69.8 °F 78% 29.92 in 4.3 mi ENE 3.5 mph - N/A   Mostly Cloudy
8:00 AM 77.0 °F - 69.8 °F 78% 29.95 in 5.0 mi Variable 2.3 mph - N/A   Mostly Cloudy
8:30 AM 82.4 °F 87.2 °F 71.6 °F 70% 29.95 in 5.0 mi East 3.5 mph - N/A   Mostly Cloudy
9:00 AM 82.4 °F 87.2 °F 71.6 °F 70% 29.98 in 5.0 mi ENE 5.8 mph - N/A   Scattered Clouds
9:30 AM 84.2 °F 88.4 °F 69.8 °F 62% 29.98 in 5.0 mi ENE 9.2 mph - N/A   Scattered Clouds
10:00 AM 85 °F - 73 °F 60% 29.95 in 5 mi East 13.8 mph - -   Mist
10:00 AM 86.0 °F 91.8 °F 71.6 °F 62% 29.98 in 5.0 mi ENE 8.1 mph - N/A   Scattered Clouds
10:30 AM 86.0 °F 91.8 °F 71.6 °F 62% 29.95 in 5.0 mi Variable 6.9 mph - N/A   Scattered Clouds
11:00 AM 86.0 °F 90.4 °F 69.8 °F 58% 29.95 in 5.0 mi East 12.7 mph - N/A   Scattered Clouds
11:30 AM 87.8 °F 91.4 °F 68.0 °F 52% 29.95 in 5.0 mi East 10.4 mph - N/A   Scattered Clouds
12:00 PM 87.8 °F 92.6 °F 69.8 °F 55% 29.92 in 5.0 mi East 11.5 mph - N/A   Scattered Clouds
12:30 PM 87.8 °F 92.6 °F 69.8 °F 55% 29.92 in 5.0 mi East 10.4 mph - N/A   Scattered Clouds
1:00 PM 88 °F - 72 °F 49% 29.91 in 5 mi East 12.7 mph - -   Haze
1:00 PM 89.6 °F 94.7 °F 69.8 °F 52% 29.89 in 5.0 mi East 10.4 mph - N/A   Scattered Clouds
1:30 PM 89.6 °F 94.7 °F 69.8 °F 52% 29.89 in 5.0 mi ENE 9.2 mph - N/A   Scattered Clouds
2:00 PM 89.6 °F 93.4 °F 68.0 °F 49% 29.86 in 5.0 mi Variable 5.8 mph - N/A   Scattered Clouds
2:30 PM 86.0 °F 91.8 °F 71.6 °F 62% 29.86 in 5.0 mi Variable 4.6 mph - N/A   Scattered Clouds
3:00 PM 86.0 °F 93.4 °F 73.4 °F 66% 29.86 in 5.0 mi Variable 3.5 mph - N/A   Scattered Clouds
3:30 PM 87.8 °F 95.6 °F 73.4 °F 62% 29.83 in 5.0 mi Variable 4.6 mph - N/A   Scattered Clouds
4:00 PM 88 °F - 74 °F 56% 29.83 in 5 mi NNW 5.8 mph - -   Haze
4:00 PM 86.0 °F 91.8 °F 71.6 °F 62% 29.83 in 5.0 mi Variable 3.5 mph - N/A   Scattered Clouds
4:30 PM 86.0 °F 91.8 °F 71.6 °F 62% 29.86 in 5.0 mi Variable 2.3 mph - N/A   Mostly Cloudy
5:00 PM 84.2 °F 89.6 °F 71.6 °F 66% 29.83 in 5.0 mi NW 5.8 mph - N/A   Mostly Cloudy
5:30 PM 84.2 °F 89.6 °F 71.6 °F 66% 29.86 in 5.0 mi NW 4.6 mph - N/A   Mostly Cloudy
6:00 PM 82.4 °F 86.3 °F 69.8 °F 66% 29.86 in 5.0 mi NW 3.5 mph - N/A   Mostly Cloudy
6:30 PM 82.4 °F 86.3 °F 69.8 °F 66% 29.86 in 4.3 mi Variable 2.3 mph - N/A   Mostly Cloudy
7:00 PM 84 °F - 72 °F 60% 29.85 in 4 mi Calm Calm - -   Mist
7:00 PM 82.4 °F 86.3 °F 69.8 °F 66% 29.89 in 4.3 mi Variable 1.2 mph - N/A   Mostly Cloudy
7:30 PM 82.4 °F 86.3 °F 69.8 °F 66% 29.89 in 4.3 mi Calm Calm - N/A   Mostly Cloudy
8:00 PM 82.4 °F 86.3 °F 69.8 °F 66% 29.92 in 4.3 mi Variable 1.2 mph - N/A   Mostly Cloudy
8:30 PM 82.4 °F 87.2 °F 71.6 °F 70% 29.92 in - Calm Calm - N/A   Mostly Cloudy
9:00 PM 82.4 °F 87.2 °F 71.6 °F 70% 29.92 in 4.3 mi Calm Calm - N/A   Mostly Cloudy
9:30 PM 80.6 °F 85.4 °F 73.4 °F 79% 29.95 in 4.3 mi ENE 4.6 mph - N/A   Mostly Cloudy
10:00 PM 80 °F - 76 °F 83% 29.89 in 4 mi East 5.8 mph - - Rain Light Rain
10:00 PM 80.6 °F 85.4 °F 73.4 °F 79% 29.95 in 4.3 mi East 5.8 mph - N/A Rain Rain
10:30 PM 78.8 °F - 73.4 °F 83% 29.95 in 4.3 mi East 3.5 mph - N/A   Mostly Cloudy
11:00 PM 78.8 °F - 73.4 °F 83% 29.95 in 4.3 mi East 4.6 mph - N/A   Mostly Cloudy
11:30 PM 78.8 °F - 73.4 °F 83% 29.95 in 4.3 mi East 6.9 mph - N/A   Mostly Cloudy